Content
SEND FEEDBACK

Daily
Averages
Monthly
Summary
United States of America

POTTS JUNCTION, GUAM


Home > North America > United States > Guam
Elevation: 110 meters     Latitude: 13 33N     Longitude: 144 50E

WEATHER
 
SELECT A DAY
Number of Records: 208,807;   Date Range: 1/1/95 - 7/7/14
 
SHARE

PRINT THIS DATA

[ ← Previous Day ]
WEATHER ALMANAC - 21 JUNE, 2013
[ Next Day → ]
[ °F ]   °C
Weather ElementAverageHighLow
Temperature30 °C32.8 °C (12:54 pm)27.8 °C (2:54 am)
Dewpoint24.2 °C25 °C (1:07 am)23.3 °C (6:54 pm)
Humidity71.2 %85 % (2:54 am)59 % (12:54 pm)
Barometer1011.9 hPa1012.9 hPa (8:54 am)1010.5 hPa (3:54 pm)
Wind Speed20 km/h29.6 km/h (11:54 am)
Wind Gust42.6 km/h (9:54 am)
Weather ElementAverage
Visibility15.6 km
Wind DirectionENE (82.3 °)

Weather ElementTotal
Precipitation2.03 mm
Cooling Degree Days11.9 (Base 18.3)
Growing Degree Days20.3 (Base 10)
Averaged from 30 records on 21 June, 2013
WEATHER CONDITIONS BREAKOUT
WIND DIRECTION BREAKOUT
WEATHER BY HOUR - 21 JUNE, 2013
[ °F ]   °C
Local TimeTemperatureDewpointHumidityBarometerVisibilityWind DirectionWind SpeedGust SpeedPrecipitationEventsConditions
1:07 AM28 °C25 °C84 %1012.5 hPa16.1 kmEast (80°)11.1 km/hMostly Cloudy
1:18 AM29 °C24 °C74 %1012.2 hPa16.1 kmEast (80°)14.8 km/hScattered Clouds
1:54 AM28.3 °C25 °C82 %1011.2 hPa16.1 kmENE (70°)18.5 km/h1.52 mmMostly Cloudy
2:54 AM27.8 °C25 °C85 %1011.2 hPa16.1 kmENE (70°)14.8 km/h0.25 mmPartly Cloudy
3:54 AM27.8 °C25 °C85 %1011.2 hPa16.1 kmENE (70°)16.7 km/h0 mmPartly Cloudy
4:54 AM27.8 °C24.4 °C82 %1011.2 hPa16.1 kmEast (80°)18.5 km/hClear
5:54 AM28.3 °C24.4 °C79 %1011.5 hPa16.1 kmEast (80°)16.7 km/h0.25 mmMostly Cloudy
6:00 AM28 °C24 °C79 %1012.2 hPa16.1 kmEast (80°)14.8 km/hClear
6:54 AM28.3 °C25 °C82 %1012.2 hPa16.1 kmEast (80°)9.3 km/hPartly Cloudy
7:54 AM29.4 °C23.9 °C72 %1012.2 hPa16.1 kmEast (80°)20.4 km/h0 mmClear
8:54 AM30.6 °C24.4 °C69 %1012.9 hPa16.1 kmEast (80°)24.1 km/h37 km/hScattered Clouds
9:54 AM31.7 °C24.4 °C65 %1012.5 hPa16.1 kmENE (70°)25.9 km/h42.6 km/hScattered Clouds
10:54 AM31.7 °C23.9 °C63 %1012.5 hPa16.1 kmEast (90°)27.8 km/h42.6 km/hPartly Cloudy
11:54 AM32.2 °C24.4 °C63 %1012.2 hPa16.1 kmENE (70°)29.6 km/h40.7 km/hScattered Clouds
12:54 PM32.8 °C23.9 °C59 %1011.9 hPa16.1 kmEast (80°)25.9 km/h38.9 km/hScattered Clouds
1:54 PM32.8 °C23.9 °C59 %1011.2 hPa16.1 kmEast (80°)27.8 km/h38.9 km/hMostly Cloudy
2:54 PM32.2 °C24.4 °C63 %1010.8 hPa16.1 kmEast (90°)22.2 km/hScattered Clouds
3:32 PM31 °C24 °C66 %1011.5 hPa16.1 kmEast (100°)25.9 km/h37 km/hMostly Cloudy
3:49 PM32 °C24 °C62 %1011.2 hPa16.1 kmEast (100°)22.2 km/h37 km/hScattered Clouds
3:54 PM31.1 °C23.9 °C65 %1010.5 hPa16.1 kmESE (110°)20.4 km/h35.2 km/hScattered Clouds
4:54 PM31.1 °C23.9 °C65 %1010.5 hPa16.1 kmEast (80°)25.9 km/hScattered Clouds
5:13 PM31 °C24 °C66 %1011.5 hPa2.9 kmEast (100°)16.7 km/h31.5 km/hPartly Cloudy
5:20 PM31 °C24 °C66 %1011.5 hPa16.1 kmEast (90°)24.1 km/h33.3 km/hPartly Cloudy
5:54 PM30.6 °C23.9 °C67 %1010.8 hPa16.1 kmEast (80°)20.4 km/hPartly Cloudy
6:54 PM29.4 °C23.3 °C69 %1011.2 hPa16.1 kmEast (80°)18.5 km/hPartly Cloudy
7:54 PM29.4 °C23.9 °C72 %1011.9 hPa16.1 kmEast (80°)18.5 km/hPartly Cloudy
8:54 PM29.4 °C23.9 °C72 %1012.2 hPa16.1 kmEast (80°)24.1 km/h33.3 km/hPartly Cloudy
9:54 PM29.4 °C23.9 °C72 %1012.9 hPa16.1 kmEast (80°)13 km/hPartly Cloudy
10:54 PM29.4 °C24.4 °C74 %1012.9 hPa16.1 kmEast (80°)13 km/hPartly Cloudy
11:54 PM28.9 °C23.9 °C74 %1012.9 hPa16.1 kmEast (80°)14.8 km/h0 mmScattered Clouds
Hourly data recorded from PGUM, located 0 kilometers away from Potts Junction, Guam







STORIES FROM OUR PARTNERS